FW2567 Weather Reports


Display with metric or nautical units.
time (UTC)temp
F
wind
direction
speed
MPH
gust
MPH
rain 1hr
in
rain 24hr
in
rain mn
in
humidity
%
barometer
mb
20260901160032 53 218 0.0 2.0 0.00 0.00 0.00 93 1012.5
20260901154530 52 203 0.0 2.0 0.00 0.00 0.00 93 1012.4
20260901153030 50 180 0.0 0.0 0.00 0.00 0.00 93 1012.4
20260901151531 49 180 0.0 2.0 0.00 0.00 0.00 93 1012.4
20260901150033 48 169 1.0 3.0 0.00 0.00 0.00 92 1012.2
20260901144606 48 157 1.0 2.0 0.00 0.00 0.00 92 1012.2
20260901143106 47 157 1.0 2.0 0.00 0.00 0.00 92 1012.1
20260901140033 46 135 0.0 3.0 0.00 0.00 0.00 91 1011.9
20260901134530 46 154 0.0 3.0 0.00 0.00 0.00 91 1011.7
20260901133029 46 157 0.0 5.0 0.00 0.00 0.00 91 1011.5
20260901131531 46 154 2.0 5.0 0.00 0.00 0.00 91 1011.5
20260901130030 46 150 0.0 4.0 0.00 0.00 0.00 90 1011.4
20260901124530 46 166 2.0 6.0 0.00 0.00 0.00 89 1011.3
20260901123030 46 141 1.0 4.0 0.00 0.00 0.00 89 1011.3
20260901121534 47 157 0.0 0.0 0.00 0.00 0.00 88 1011.3
20260901120030 47 158 1.0 5.0 0.00 0.00 0.00 88 1011.2
20260901114532 47 223 1.0 4.0 0.00 0.00 0.00 88 1011.3
20260901113108 47 168 2.0 5.0 0.00 0.00 0.00 88 1011.3
20260901111531 47 150 0.0 3.0 0.00 0.00 0.00 88 1011.2
20260901110042 47 145 0.0 4.0 0.00 0.00 0.00 88 1011.3
20260901104609 47 152 1.0 3.0 0.00 0.00 0.00 87 1011.3
20260901103031 47 151 1.0 3.0 0.00 0.00 0.00 86 1011.3
20260901101530 48 97 1.0 4.0 0.00 0.00 0.00 86 1011.3
20260901100104 49 150 1.0 4.0 0.00 0.00 0.00 86 1011.3
20260901094608 49 146 2.0 5.0 0.00 0.00 0.00 86 1011.3
20260901093029 48 165 2.0 5.0 0.00 0.00 0.00 86 1011.3
20260901091530 48 153 2.0 5.0 0.00 0.00 0.00 85 1011.3
20260901090032 49 134 0.0 3.0 0.00 0.00 0.00 85 1011.2
20260901084531 49 185 1.0 4.0 0.00 0.00 0.00 85 1011.2
20260901083030 49 199 2.0 5.0 0.00 0.00 0.00 85 1011.4
20260901080030 50 128 1.0 5.0 0.00 0.00 0.00 84 1011.3
20260901074604 50 196 1.0 4.0 0.00 0.00 0.00 83 1011.2
20260901073032 50 218 1.0 4.0 0.00 0.00 0.00 83 1011.2
20260901071529 49 160 1.0 5.0 0.00 0.00 0.00 83 1011.1
20260901070032 50 174 0.0 4.0 0.00 0.00 0.00 82 1011.1
20260901064531 51 157 2.0 3.0 0.00 0.00 0.00 81 1011.2
20260901063029 52 169 0.0 3.0 0.00 0.00 0.00 81 1011.4
20260901061532 52 165 1.0 3.0 0.00 0.00 0.00 82 1011.5
20260901060031 51 157 3.0 4.0 0.00 0.00 0.00 82 1011.6
20260901053031 51 157 1.0 5.0 0.00 0.00 0.00 82 1011.5
20260901051531 52 151 2.0 5.0 0.00 0.00 0.00 80 1011.5
20260901050032 53 199 1.0 4.0 0.00 0.00 0.00 77 1011.6
20260901041530 57 142 3.0 6.0 0.00 0.00 0.00 70 1011.3
20260901034532 59 155 4.0 7.0 0.00 0.00 0.00 70 1011.0
20260901033033 60 148 4.0 6.0 0.00 0.00 0.00 70 1010.9
20260901031531 61 133 1.0 4.0 0.00 0.00 0.00 67 1010.8
20260901030035 0 0 0.0 0.0 0.00 0.00 0.00 100
20260901024532 64 162 3.0 5.0 0.00 0.00 0.00 62 1010.6
20260901023031 64 157 4.0 7.0 0.00 0.00 0.00 62 1010.4
20260901021530 64 149 2.0 6.0 0.00 0.00 0.00 63 1010.4
20260901020031 66 176 2.0 6.0 0.00 0.00 0.00 59 1010.3
20260901014529 69 222 2.0 4.0 0.00 0.00 0.00 53 1010.3
20260901013031 73 257 3.0 5.0 0.00 0.00 0.00 44 1010.2
20260901011528 76 270 3.0 6.0 0.00 0.00 0.00 39 1010.3
20260901010107 78 257 5.0 8.0 0.00 0.00 0.00 37 1010.3
20260901004533 80 269 4.0 9.0 0.00 0.00 0.00 33 1010.3
20260901003034 81 291 4.0 9.0 0.00 0.00 0.00 31 1010.4
20260901001528 81 326 5.0 11.0 0.00 0.00 0.00 30 1010.4
20260901000107 82 337 4.0 11.0 0.00 0.00 0.00 31 1010.6
20260831234531 82 291 4.0 11.0 0.00 0.00 0.00 31 1010.6
20260831231534 80 304 5.0 12.0 0.00 0.00 0.00 33 1010.9
20260831230144 81 290 6.0 12.0 0.00 0.00 0.00 33 1011.0
20260831224532 81 320 4.0 13.0 0.00 0.00 0.00 33 1011.2
20260831223104 81 327 5.0 14.0 0.00 0.00 0.00 35 1011.4
20260831221532 80 314 6.0 15.0 0.00 0.00 0.00 36 1011.5
20260831220030 79 338 4.0 10.0 0.00 0.00 0.00 37 1011.8
20260831214530 78 349 5.0 12.0 0.00 0.00 0.00 37 1011.9
20260831213034 78 322 4.0 11.0 0.00 0.00 0.00 38 1012.1
20260831211532 77 310 5.0 13.0 0.00 0.00 0.00 40 1012.3
20260831210103 77 305 5.0 10.0 0.00 0.00 0.00 40 1012.4
20260831204528 77 347 5.0 13.0 0.00 0.00 0.00 39 1012.6
20260831203028 77 340 6.0 11.0 0.00 0.00 0.00 38 1012.8
20260831201532 77 355 6.0 11.0 0.00 0.00 0.00 38 1013.1
20260831200106 77 354 7.0 14.0 0.00 0.00 0.00 38 1013.2
20260831194606 77 349 6.0 15.0 0.00 0.00 0.00 39 1013.5
20260831193139 76 347 6.0 14.0 0.00 0.00 0.00 40 1013.6
20260831191530 75 333 6.0 15.0 0.00 0.00 0.00 42 1014.0
20260831190032 74 314 6.0 16.0 0.00 0.00 0.00 44 1014.3
20260831184530 73 329 4.0 11.0 0.00 0.00 0.00 47 1014.6
20260831181531 71 325 3.0 7.0 0.00 0.00 0.00 55 1015.1
20260831180031 70 289 3.0 7.0 0.00 0.00 0.00 57 1015.4
20260831174528 70 267 2.0 5.0 0.00 0.00 0.00 59 1015.5
20260831173032 69 215 0.0 3.0 0.00 0.00 0.00 61 1015.6
20260831171532 68 136 1.0 3.0 0.00 0.00 0.00 64 1015.8
20260831170031 67 252 1.0 5.0 0.00 0.00 0.00 68 1016.0
20260831164530 67 31 0.0 3.0 0.00 0.00 0.00 74 1016.1
20260831163031 65 22 0.0 1.0 0.00 0.00 0.00 79 1016.3
20260831161608 62 22 0.0 1.0 0.00 0.00 0.00 83 1016.5